Regional Weather Roundup
Issued by NWS Grand Forks, ND

Home | Current Version | Previous Version | Text Only | Print | Product List | Glossary On
Versions: 1 2 3 4 5 6 7 8 9 10 11 12 13 14 15 16 17 18 19 20 21 22 23 24 25 26 27 28 29 30 31 32 33 34 35 36 37 38 39 40 41 42 43 44 45 46 47 48 49 50
000
ASUS43 KFGF 240710
RWRFGF
PRAIRIE TO PINES  WEATHER ROUNDUP
NATIONAL WEATHER SERVICE EASTERN NORTH DAKOTA/GRAND FORKS ND
200 AM CDT THU AUG 24 2017

 **SATELLITE DATA USED TO AUGMENT SKY COVER AT AUTOMATED STATIONS**
 *****  WEATHER ACROSS EASTERN NORTH DAKOTA  *****

CITY           SKY/WX    TMP DP  RH WIND       PRES   REMARKS
GRAND FORKS    MOCLDY    55  54  96 NE6       30.09S
GRAND FRKS AFB FAIR      52  52  99 NE3       30.10R
DEVILS LAKE    FAIR      54  52  93 E10       30.08R
FARGO          CLOUDY    58  56  93 E6        30.06R
WAHPETON ARPT  FAIR      59  48  67 SE12G21   30.03F
$$

 ***** WEATHER ACROSS CENTRAL AND WESTERN NORTH DAKOTA  *****

CITY           SKY/WX    TMP DP  RH WIND       PRES   REMARKS
BISMARCK       FAIR      60  57  89 E9        29.97S
MINOT          FAIR      57  51  80 E9        30.01S
JAMESTOWN      FAIR      56  52  86 E12       30.02S
MINOT AFB      FAIR      54  50  86 E10       30.01R
GARRISON         N/A     57  55  93 E12       29.97R
WILLISTON      FAIR      63  53  70 NE8       29.97R
DICKINSON      FAIR      61  57  87 S9        29.95S
HETTINGER      FAIR      63  56  78 SE6       29.99S
$$

 *****  OTHER AIRPORT OBSERVATIONS IN OUR AREA  *****

CITY           SKY/WX    TMP DP  RH WIND       PRES   REMARKS
WALHALLA       FOG       45  45 100 CALM      30.13S VSB 1/4
GRAFTON AIRPOR FAIR      48  48 100 NE6       30.13S
VALLEY CITY AR   N/A     57  52  82 E12G17    30.07R
CANDO          FAIR      50  50 100 E8        30.10S
CAVALIER APRT  FAIR      48  48 100 CALM      30.12S
GWINNER        SUNNY     57  54  88 E13       30.03F
SHEYENNE NWR     N/A     59  51  75 SE13      29.95S
ROLLA          CLOUDY    48  50 100 E9        30.11S
 ***** THE ABOVE OBSERVATIONS ARE NON NWS ARE NOT QUALITY
       CONTROLLED AND MAY MIS-REPORT RAIN FOR SNOW...
$$

  *****  WEATHER ACROSS NORTHERN MINNESOTA  *****

CITY           SKY/WX    TMP DP  RH WIND       PRES   REMARKS
FLAG ISLAND      N/A     55  46  71 CALM      30.12S
WARROAD        FAIR      43  39  87 CALM      30.14S FOG
ROSEAU         FOG       39  36  87 CALM      30.14R VSB 1/4
HALLOCK        FAIR      46  45  93 E7        30.12S
THF RVR FALLS  MOCLDY    51  48  89 E7        30.12S
BAUDETTE       FAIR      46  46 100 E3        30.14R
WASKISH        FOG       45  43  93 CALM      30.13S VSB 1/4
CROOKSTON      FAIR      54  52  94 E5        30.10S
STEPHEN NDAWN    N/A     43  43 100 NE2         N/A
GREENBUSH NDAW   N/A     39  39 100 CALM        N/A
$$
  *****  WEATHER ACROSS CENTRAL AND WEST MINNESOTA  *****

CITY           SKY/WX    TMP DP  RH WIND       PRES   REMARKS
FOSSTON          N/A     52  50  93 CALM      30.11F
BEMIDJI        MOCLDY    50  50 100 E6        30.12S
PARK RAPIDS    CLOUDY    56  54  93 CALM      30.11S
ELBOW LAKE     CLOUDY    60  52  74 NE9       30.09R
WADENA         MOCLDY    52  52 100 E6        30.09F
DETROIT LAKES  FAIR      54  52  94 SE7       30.10S
MOORHEAD       FAIR      57  54  88 E8        30.07R
FERGUS FALLS   MOCLDY    57  54  88 E6        30.07S
MORRIS MN      FAIR      59  52  77 E17       30.06S
STAPLES        MOCLDY    52  52 100 CALM      30.11S
$$
  *****  WEATHER ELSEWHERE ACROSS MINNESOTA  *****

CITY           SKY/WX    TMP DP  RH WIND       PRES   REMARKS
DULUTH         MOCLDY    52  52 100 CALM      30.11R
INTRNTL FALLS  FAIR      37  35  92 CALM      30.13S FOG
ELY            FAIR      41  39  93 CALM      30.14R
CLOQUET        FAIR      48  46  93 CALM      30.12R FOG
WHEATON        FAIR      59  52  77 E14       30.07S
BRAINERD       CLOUDY    55  53  93 CALM      30.11S
HIBBING        FAIR      44  44 100 CALM      30.12R FOG
ALEXANDRIA     HVY RAIN  57  52  83 SE9       30.10S
SAINT CLOUD    CLOUDY    56  53  90 E5        30.10F
MINNEAPOLIS    CLOUDY    64  52  64 NE14      30.10S
$$

  *****  WEATHER ACROSS SOUTH DAKOTA  *****

CITY           SKY/WX    TMP DP  RH WIND       PRES   REMARKS
SIOUX FALLS    MOCLDY    68  60  75 S13       29.99F
BROOKINGS      FAIR      64  59  83 SE9       30.00S
WATERTOWN      FAIR      62  59  90 E7        30.00S
HURON          MOCLDY    67  61  81 SE10      29.92F
SISSETON         N/A     60  56  86 E6        30.04R
ABERDEEN       FAIR      60  58  92 NE10      29.98S
MITCHELL       FAIR      66  61  84 SE12      29.93S
PIERRE         FAIR      63  60  90 NE13      29.90F
MOBRIDGE       FAIR      65  59  81 E10       29.94S
RAPID CITY     FAIR      64  55  72 CALM      30.00S
$$

  *****  SOME WEATHER IN NEARBY STATES *****

CITY           SKY/WX    TMP DP  RH WIND       PRES   REMARKS
GLASGOW MT     FAIR      70  44  39 E16       29.89R
GREAT FALLS MT FAIR      68  35  29 S7        29.93R
CHEYENNE WY    FAIR      62  44  51 W6        30.16S
SCOTTSBLUFF NE FAIR      67  49  52 NE6       30.03F
OMAHA NE       FAIR      66  58  75 S10       30.03F
DES MOINES IA  CLOUDY    67  57  70 SE7       30.05F
DAVENPORT IA   FAIR      52  50  93 CALM      30.08F
CHICAGO IL     FAIR      63  55  75 SW3       30.03S
EAU CLAIRE WI  LGT RAIN  56  52  86 CALM      30.11S
LA CROSSE WI   FAIR      59  55  87 CALM      30.09S
$$

  *****  SOME NATIONAL WEATHER *****

CITY           SKY/WX    TMP DP  RH WIND       PRES   REMARKS
LA GUARDIA NY  FAIR      73  55  53 NW6       29.87S
RALEIGH NC     MOCLDY    74  73  97 CALM      29.90S
ATLANTA GA     FAIR      72  63  73 NW9       29.92F
NEW ORLEANS LA MOCLDY    81  78  91 NW3       29.89S
OKLAHOMA CITY  FAIR      67  58  72 E5        30.03S
ALBUQUERQUE NM MOCLDY    66  55  67 S13       30.24R
SALT LAKE CITY FAIR      72  52  49 NW6       30.07R
LOS ANGELES CA CLOUDY    66  61  84 W6        29.93F
BOISE ID       FAIR      72  52  49 E8        29.95R
SEATTLE WA     CLOUDY    63  58  83 NW5       29.99S
$$

*** WEATHER ACROSS MANITOBA...SASKATCHEWAN AND ONTARIO ***
                ***ONTARIO***

CITY           SKY/WX    TMP DP  RH WIND       PRES   REMARKS
GERALDTON      CLEAR     39  36  87 NW2       30.09R
THUNDER BAY    CLEAR     39  39 100 SW5       30.12R
SIOUX LOOKOUT  NOT AVBL
TORONTO        PTCLDY    54  50  87 W7        29.96R
BIG TROUT LK   CLEAR     48  41  76 N6        30.13R
PICKLE LAKE    NOT AVBL
DRYDEN         FOG       45  45 100 NE3       30.13S VSB 3/8
KENORA         PTCLDY    48  45  87 E3        30.15R
$$
                *** MANITOBA***

CITY           SKY/WX    TMP DP  RH WIND       PRES   REMARKS
BRANDON        PTCLDY    46  46 100 E10       30.12S
DAUPHIN        FOG       41  39  93 W7        30.13R VSB 5/8
ISLAND LAKE    CLEAR     48  45  87 N6        30.18R
PILOT MOUND      N/A     46  45  93 E7          N/A
THE PAS        CLEAR     55  50  82 SE8       30.12S
THOMPSON       PTCLDY    34  32  93 N3        30.16S
WINNIPEG       CLEAR     41  41 100 CALM      30.15R
LYNN LAKE      CLEAR     50  46  87 SE5       30.11S
CHURCHILL      CLEAR     45  39  81 S8        30.15R
GILLAM         CLEAR     43  39  87 SW5       30.16S
$$
                ***SASKATCHEWAN***

CITY           SKY/WX    TMP DP  RH WIND       PRES   REMARKS
ESTEVAN        PTCLDY    52  52 100 E14G20    30.03S
KINDERSLEY     CLEAR     63  50  63 E15G22    29.85F
LLOYDMINSTER   PTCLDY    59  52  77 SE13G18   29.88F
PRINCE ALBERT  PTCLDY    55  50  82 SE8       30.03R
REGINA         CLEAR     55  50  82 E16G24    30.01S
YORKTON        CLEAR     48  46  93 E7        30.09S
N. BATTLEFORD  PTCLDY    59  52  77 SE15      29.94S
LA RONGE       CLEAR     61  52  72 SE10      30.02S
SASKATOON      PTCLDY    61  52  72 SE21G28   29.97S
SWIFT CURRENT  CLEAR     64  46  52 SE15      29.89F
$$
NOTE: THESE ARE AUTOMATED STATIONS WITH LIMITED QUALITY CONTROL
      "FAIR" INDICATES FEW OR NO CLOUDS BELOW 12,000 FEET WITH NO
      SIGNIFICANT WEATHER AND/OR OBSTRUCTIONS TO VISIBILITY.
      SKY/WX - SKY CONDITION AND SIGNIFICANT WEATHER.
      TMP - AIR TEMPERATURE.    DP   - DEWPOINT TEMPERATURE.
      RH  - RELATIVE HUMIDITY.  PRES - PRESSURE.
      HX  - HEAT INDEX.         WCI  - WIND CHILL INDEX.
$



USA.gov is the U.S. government's official web portal to all federal, state and local government web resources and services.